Lid_Strength_Index
4 4 4 4 4 4 4 4 4 4 4 4 3 3 3 3 3 6 8 7 9 11 12 10 10 12 13 13 16 14 14 14 15 16 17 17 18 17 18 17 17 17 18 18 17 18 21 13 13 14 13 11 11 11
4 4 4 4 4 3 3 3 3 3 3 3 3 3 3 3 2 5 9 7 6 8 9 9 8 7 8 9 11 11 12 12 12 15 15 14 17 17 18 19 14 18 14 16 14 15 12 12 13 11 10 11 10 10
4 4 4 4 3 3 3 3 3 3 3 2 2 2 2 2 2 4 8 7 6 8 10 11 10 7 6 6 6 11 10 9 11 9 12 13 17 15 19 18 16 15 12 15 14 14 13 12 10 10 9 9 9 9
4 4 4 3 3 3 3 3 2 2 2 2 2 2 2 1 1 2 6 5 7 7 12 12 7 8 5 5 5 5 6 7 8 7 9 11 14 11 15 13 14 13 13 13 13 13 10 10 9 9 9 8 9 9
4 3 3 3 3 3 2 2 2 1 1 1 0 0 0 0 -0 2 4 3 2 6 14 11 8 6 4 4 4 4 5 6 6 8 9 10 10 9 10 10 14 11 12 12 13 9 9 10 8 7 8 9 9 10
2 2 2 2 2 1 1 1 1 0 -0 -0 -0 -1 -1 -1 -1 4 7 5 1 1 6 11 7 8 6 5 5 5 4 5 5 7 7 7 6 7 11 13 10 8 7 6 8 6 6 8 8 8 8 9 8 8
2 1 1 1 1 0 -0 -0 -0 -1 -1 -1 -2 -2 -2 -2 2 4 7 4 -0 -0 5 9 10 8 7 7 6 6 5 4 5 6 7 7 7 7 10 12 8 7 6 6 5 5 7 6 7 6 6 5 5 5
1 0 0 -0 -1 -1 -1 -1 -1 -2 -2 -2 -2 -2 -2 -2 -0 3 1 -1 -1 2 4 9 10 10 7 9 9 7 6 5 6 7 7 8 7 7 11 8 7 6 6 6 6 5 5 5 5 5 4 5 5 6
-0 -0 -1 -1 -1 -1 -1 -2 -2 -2 -2 -2 -2 -2 2 3 4 3 -1 -2 0 3 8 10 15 14 7 7 7 8 7 9 5 8 8 7 9 11 9 8 7 6 7 7 6 6 6 6 6 6 5 5 6 6
-1 -1 -1 -1 -2 -2 -2 -2 -2 -2 -2 -2 0 4 7 5 -0 -1 2 4 5 5 5 8 8 10 8 9 8 9 7 9 11 9 7 9 10 7 7 6 6 6 6 6 7 7 6 6 6 6 5 5 5 5
-1 -1 -2 -2 -2 -2 -2 -2 -2 -2 -1 1 5 6 6 0 3 5 7 8 10 9 7 7 8 9 7 10 10 8 13 13 13 13 10 12 12 9 7 6 5 5 5 5 6 6 7 7 8 7 7 7 6 6
-2 -2 -2 -2 -2 -2 -2 -2 -2 -0 2 2 3 2 2 5 6 8 10 11 9 13 11 8 7 6 8 8 10 10 11 11 14 10 11 13 10 7 6 6 7 7 7 8 8 8 8 8 8 8 8 8 8 7
-1 -1 -2 -2 -2 -2 -2 -2 -2 -1 -0 2 5 7 7 8 11 13 18 12 11 9 9 10 10 9 9 8 8 11 14 16 11 12 13 11 8 7 7 7 7 7 8 9 9 9 10 10 9 9 9 8 8 8
-1 -1 -1 -1 -2 -2 -2 -1 -1 -1 2 7 8 11 11 14 14 13 13 11 9 10 10 9 10 8 7 9 9 12 12 11 13 14 13 10 9 9 7 7 8 9 9 10 10 10 11 12 12 11 11 9 9 10
-1 -1 -1 -1 -1 -1 -1 -1 -1 1 6 8 9 13 12 11 13 12 10 10 9 9 8 9 8 7 9 10 9 10 12 13 12 13 11 9 8 7 7 9 9 10 10 10 11 11 12 12 12 12 12 11 11 11
-1 -1 1 -1 -2 -2 -2 -1 1 3 7 7 10 13 14 13 13 14 11 10 7 8 8 9 15 13 12 12 13 13 13 14 12 11 9 7 7 7 9 9 9 10 10 11 11 11 12 12 13 12 12 12 13 13
-1 3 -1 -1 -1 -1 -1 3 5 6 6 8 10 8 12 13 12 11 9 8 7 8 14 16 17 15 13 13 13 12 13 11 10 9 8 7 7 9 10 10 10 10 11 11 12 12 12 12 12 12 13 13 13 13
3 1 -1 -1 -1 1 4 5 6 7 9 8 9 9 8 11 11 10 8 8 8 12 12 14 10 14 17 18 15 12 10 10 9 9 8 7 8 11 10 11 10 11 12 12 12 12 12 13 13 13 12 12 13 13
2 2 -1 -1 1 4 6 6 6 10 11 11 9 13 12 11 9 8 8 8 7 9 9 14 14 15 13 11 10 11 10 11 12 11 7 7 10 10 10 11 11 12 12 12 12 12 12 12 13 13 12 12 14 13
-1 -1 -1 -1 2 7 7 7 6 8 13 12 13 11 10 12 13 12 11 11 8 9 9 10 11 10 12 12 12 12 12 10 9 9 9 9 10 10 11 12 12 12 13 13 13 11 13 13 13 12 12 12 13 14
1 0 -1 3 6 9 11 7 8 7 8 10 13 12 12 9 9 10 11 7 8 9 11 10 12 12 11 10 8 8 9 8 9 8 9 12 11 11 12 12 13 14 16 18 19 17 15 16 15 14 14 15 14 13
4 1 5 4 6 6 8 11 8 7 8 9 8 7 9 9 9 10 10 8 9 8 10 13 11 10 10 11 10 9 9 10 10 10 10 10 13 13 14 15 15 17 18 18 18 19 18 16 16 16 17 16 15 14
2 3 6 6 9 9 12 7 8 9 10 12 9 10 9 9 8 7 10 11 12 12 11 12 12 11 12 11 11 11 10 11 12 12 13 13 13 14 15 15 14 14 14 15 15 15 15 12 13 13 14 14 14 14
2 5 7 8 9 14 11 12 12 11 10 12 12 13 13 11 10 11 13 12 13 13 14 15 14 13 13 14 15 14 13 12 13 13 13 13 14 14 14 14 13 13 13 13 13 13 14 14 13 14 14 14 14 14
8 9 9 16 15 12 15 14 13 12 16 15 15 14 13 11 13 14 14 14 16 18 18 18 17 13 16 16 14 14 12 12 13 14 13 12 13 13 13 13 12 12 12 13 13 13 14 13 14 14 14 14 15 15
14 15 15 14 13 14 14 14 14 14 14 15 13 12 12 13 16 16 16 17 17 17 17 17 17 16 16 16 15 14 13 12 12 13 13 13 12 12 13 13 13 12 11 12 13 13 13 13 14 14 15 15 13 14
13 16 17 16 13 13 13 12 12 14 15 14 14 15 16 19 19 17 16 16 16 17 17 17 17 17 17 16 15 14 13 12 12 12 12 13 13 12 12 12 13 11 10 11 12 13 13 14 14 14 14 14 14 14
19 18 15 14 13 13 14 14 14 14 13 14 16 19 19 18 18 16 15 13 15 15 15 15 17 17 17 17 15 13 13 13 12 12 12 12 12 12 13 12 12 10 10 10 11 12 13 13 14 14 14 15 15 14
19 17 15 19 18 18 16 14 14 15 15 16 17 18 18 16 15 15 13 13 14 14 15 15 15 14 14 13 13 13 13 13 13 14 14 14 14 14 13 12 12 12 13 12 10 10 11 12 13 14 14 14 14 14
20 19 19 21 19 18 17 16 17 17 17 17 16 17 17 18 18 13 13 15 15 17 17 16 16 16 15 15 15 14 14 14 14 14 14 14 14 13 14 13 13 14 14 14 14 13 11 13 13 14 14 14 14 14
19 17 19 20 21 18 17 17 17 17 18 19 18 18 18 19 17 15 15 16 16 15 15 15 14 14 14 15 14 14 14 13 14 13 13 14 14 14 14 14 14 14 14 14 15 15 14 14 15 15 15 15 15 14
18 18 18 21 20 17 16 17 17 18 18 19 21 20 18 19 20 18 17 17 15 15 13 14 15 14 13 13 13 14 10 14 14 14 13 15 14 14 14 15 15 14 14 14 14 14 15 15 15 15 16 16 15 15
20 19 19 20 21 20 17 18 20 21 21 22 22 21 20 19 20 18 15 15 15 15 15 14 13 13 13 12 12 13 11 15 12 9 9 10 10 12 16 17 15 15 15 15 15 15 15 16 15 15 15 15 15 15